Regional Weather Roundup
Issued by NWS Newport/Morehead, NC

Current Version | Previous Version | Graphics & Text | Print | Product List | Glossary Off
Versions: 1 2 3 4 5 6 7 8 9 10 11 12 13 14 15 16 17 18 19 20 21 22 23 24 25 26 27 28 29 30 31 32 33 34 35 36 37 38 39 40 41 42 43 44 45 46 47 48 49 50

000
ASUS42 KMHX 101110
RWRMHX
WEATHER ROUNDUP FOR EASTERN NORTH CAROLINA
NATIONAL WEATHER SERVICE NEWPORT/MOREHEAD CITY NC
700 AM EDT THU JUL 10 2014

NOTE: "FAIR" INDICATES FEW OR NO CLOUDS BELOW 12,000 FEET
WITH NO SIGNIFICANT WEATHER AND/OR OBSTRUCTIONS TO VISIBILITY

NCZ015>017-031-032-045>047-102-103-101200-
NORTH COAST

CITY           SKY/WX    TMP DP  RH WIND       PRES   REMARKS
EDENTON        RAIN      76  74  94 CALM      30.05S
ELIZABETH CITY RAIN      73  72  94 SW13      30.06R FOG
KITTY HAWK     MOSUNNY   79  75  88 SW5       30.05R
MANTEO           N/A     79  75  87 SW14      30.06R

$$

NCZ045>047-081-094-103-104-101200-
CENTRAL COAST

CITY           SKY/WX    TMP DP  RH WIND       PRES   REMARKS
FRISCO         MOSUNNY   81  77  88 SW10      30.08R
SWANQUARTER      N/A     81 N/A N/A SW14G21   30.03R

$$

NCZ095-097-098-100-101-101200-
SOUTHERN COAST

CITY           SKY/WX    TMP DP  RH WIND       PRES   REMARKS
BEAUFORT       PTSUNNY   81  76  84 SW13      30.08R
CEDAR ISLAND     N/A     81 N/A N/A SW7G13    30.12R
JACKSONVILLE   PTCLDY    77  75  93 S5        30.06R
NEWPORT        NOT AVBL
PINEY ISLAND   MOSUNNY   80  78  94 SW8       30.07R
WILMINGTON     PTCLDY    80  75  84 S5        30.05S


$$

NCZ011>013-027>030-043-044-078>080-089-090>093-098-101200-
COASTAL PLAIN

CITY           SKY/WX    TMP DP  RH WIND       PRES   REMARKS
AHOSKIE        CLOUDY    73  71  95 S3        30.05R
CLINTON        MOCLDY    75  75 100 CALM      30.06R FOG
ELIZABETHTOWN  PTCLDY    77  76  98 S3        30.05R FOG
GOLDSBORO      LGT RAIN  72  72 100 S2        30.06R FOG
GREENVILLE     CLOUDY    73  72  94 S7        30.08R
HAVELOCK       PTCLDY    79  74  84 SW6       30.08R
KENANSVILLE    MOCLDY    75  73  94 CALM      30.08R FOG
KINSTON        CLOUDY    72  70  94 CALM      30.07S FOG
NEW BERN       MOCLDY    79  75  87 SW3       30.08R
RICHLANDS      PTCLDY    77  72  83 S6        30.07R
ROANOKE RAPIDS NOT AVBL
ROCKY MOUNT    MOCLDY    76  73  91 S6        30.04R
WASHINGTON     CLOUDY    78  73  83 SW7       30.07R
WHITEVILLE     PTCLDY    78  75  90 CALM      30.05R

$$

AMZ130-135-150-152-154-156-158-170-250-252-270-ANZ085-086-088-633-658-670-101200-
MARINE OBSERVATIONS

STATION/POSITION TIME  TEMP    WIND        PRES    WAVE   SWELL
                       AIR SEA DIR/SP/G            HT/PER HT/PER
                 (UTC) (F)     (DEG/KT/KT) (MB)    (FT/S) (FT/S)
CHESAPEAKE LIGHT NOT AVBL
BUOY 44014       1100   77 75  210/  8/ 10 1017.5    4/ 6   3/ 6
DUCK             1100   80 62  210/  9/ 15 1017.0
2E DUCK          1100                        N/A     2/ 5
OREGON INLET     1100   81 83  200/ 16/ 20 1017.8
BUOY 44095       1100      80                N/A     4/ 5
HATTERAS CG      1100   80 82  210/ 10/ 13 1018.8
DIAMOND BUOY     1100          VRB 16/ 19  1018.5    6/ 6   2/ 8
17S OCRACOKE INL NOT AVBL
CAPE LOOKOUT     1000   80     200/ 11/ 14 1017.9
BEAUFORT LAB     1100   81 82  210/ 11/ 15 1018.1
30 SE NEW RIVER  1100   81 81  220/ 17/ 19 1018.5    5/ 6   2/ 9
5 SE WRIGHTSVILL 1000   78 81  220/ 16/ 19 1018.1
FRYING PAN BUOY  NOT AVBL
BUOY 41001       NOT AVBL
BUOY 41002       1019   80 81  210/ 12/ 16 1021.5    4/10   3/10
BUOY 41004       1100   82 81  200/ 14/ 16 1017.2    5/ 5   2/ 8

$$


USA.gov is the U.S. government's official web portal to all federal, state and local government web resources and services.